Regional Weather Roundup
Issued by NWS Charleston, SC

Current Version | Previous Version | Graphics & Text | Print | Product List | Glossary On
Versions: 1 2 3 4 5 6 7 8 9 10 11 12 13 14 15 16 17 18 19 20 21 22 23 24 25 26 27 28 29 30 31 32 33 34 35 36 37 38 39 40 41 42 43 44 45 46 47 48 49 50
000
ASUS42 KCHS 220841
RWRCHS

REGIONAL WEATHER ROUNDUP
NATIONAL WEATHER SERVICE CHARLESTON SC
400 AM EDT FRI SEP 22 2017

NOTE: "FAIR" INDICATES FEW OR NO CLOUDS BELOW 12,000 FEET WITH NO
SIGNIFICANT WEATHER AND/OR OBSTRUCTIONS TO VISIBILITY.

NOT ALL STATIONS ARE QUALITY CONTROLLED. USE DATA WITH CAUTION...
ESPECIALLY DEWPOINT OBSERVATIONS.

SCZ027-030-031-034>040-042>050-220900-
...SOUTHEAST SOUTH CAROLINA...

CITY           SKY/WX    TMP DP  RH WIND       PRES   REMARKS
N CHARLESTON   PTCLDY    68  68 100 NW5       30.00S
WATERFRONT PRK   N/A     77  73  87 CALM      29.84S
JOHNS ISLAND   FAIR      72  72 100 CALM      30.00S
PINOPOLIS        N/A     70  68  94 CALM      29.92F
MONCKS CORNER  FAIR      64  64 100 CALM      30.01S
SUMMERVILLE    FAIR      68  66  94 CALM      30.02S
BEAUFORT MCAS  CLEAR     71  71 100 N5        30.00S FOG
BEAUFORT ARPT  FAIR      72  72 100 CALM      29.99S
HILTON HEAD IS PTCLDY    73  73 100 CALM      30.00R
WALTERBORO     SUNNY     64  64 100 CALM      30.02S
ALLENDALE      NOT AVBL

...SOUTHERN MIDLANDS AND PEE DEE...

CITY           SKY/WX    TMP DP  RH WIND       PRES   REMARKS
GEORGETOWN     FAIR      68  66  94 CALM      30.02S FOG
KINGSTREE      FAIR      63  63 100 CALM      30.02S
ORANGEBURG     CLEAR     68  66  93 CALM      30.02F
BARNWELL       FAIR      70  70 100 CALM      30.02S
AIKEN          FAIR      68  66  94 SE3       30.06R
MANNING        FAIR      64  61  88 CALM      30.02S
COLUMBIA       CLEAR     71  68  90 NE3       30.02S
SUMTER         CLEAR     66  64  92 NE5       30.00S
FLORENCE       CLEAR     68  67  96 CALM      30.03S
MYRTLE BEACH   CLEAR     69  67  93 N6        30.03S
N MYRTLE BEACH CLEAR     67  66  97 N3        30.02S

$$

GAZ063-065-086>088-099>101-113>116-118-119-134>141-150-220900-
...SOUTHEAST GEORGIA...

CITY           SKY/WX    TMP DP  RH WIND       PRES   REMARKS
SAVANNAH ARPT  PTCLDY    71  70  96 N3        30.00S FOG
HUNTER AAF     MOCLDY    72  71  95 CALM      29.97S
FORT STEWART   FOG       72  70  94 CALM      29.98R VSB 3/4
STATESBORO     CLEAR     69  69 100 CALM      30.00F
SYLVANIA       SUNNY     67  67 100 CALM      30.02R FOG
CLAXTON        FAIR      70  69  98 CALM      30.00F FOG

...CSRA...CENTRAL AND FAR SOUTHEAST GEORGIA...

CITY           SKY/WX    TMP DP  RH WIND       PRES   REMARKS
THOMSON        CLEAR     67  65  94 CALM      30.07S
AUGUSTA-BUSH   CLEAR     68  66  93 CALM      30.01S
AUGUSTA-DANIEL CLEAR     73  67  81 SE3       30.02F
SWAINSBORO     FAIR      70  70 100 CALM      30.02S
VIDALIA        CLEAR     72  70  94 CALM      30.01S FOG
EASTMAN        FAIR      67  67 100 CALM      30.03S
HAZLEHURST     FAIR      72  70  93 CALM      29.99S
ALMA           FOG       69  68  96 CALM      29.99S VSB 1/4
WAYCROSS       PTCLDY    71  67  90 CALM      29.99S FOG
JESUP          NOT AVBL
BAXLEY         FAIR      68  68 100 CALM      30.00R FOG
BRUNSWICK      CLOUDY    72  70  94 CALM      29.98F FOG
SAINT SIMONS   CLOUDY    79  73  82 CALM      29.97F

$$

SCZ027-028-034-036>038-045-046-048>050-GAZ119-141-220900-
...LAKE AND SUPPLEMENTAL COASTAL OBSERVATIONS...

STATION/POSITION TIME  TEMP    WIND        PRES    WAVE   SWELL
                       AIR SEA DIR/SP/G            HT/PER HT/PER/DIR
                 (UTC) (F)     (DEG/KT/KT) (MB)    (FT/S) (FT/S/D)
WINYAH BAY       0745   72      40/  3     1016.0S
LAKE MURRAY      0820   73     110/  4/  7 1015.9
ACE BASIN NERRS  0745   72        CALM     1016.0S
FORT PULASKI     0800   78 80   CALM  /  1 1015.8
SAPELO ISLAND    0800   75        CALM     1015.0

$$

ANZ835-935-AMZ111-154-330-350-352-354-370-450-454-472-220900-
...C-MAN AND BUOY OBSERVATIONS...

STATION/POSITION TIME  TEMP    WIND        PRES    WAVE   SWELL
                       AIR SEA DIR/SP/G            HT/PER HT/PER/DIR
                 (UTC) (F)     (DEG/KT/KT) (MB)    (FT/S) (FT/S/D)
BUOY 41004       0810   80 81   20/  4/  6 1015.0
BUOY 41008       0750   80 80   70/  6/  8 1014.9F   2/11   2/110/11
FOLLY BEACH CMAN 0800   78     310/  3/  3 1016.3R
CAPERS NEARSHORE 0808   76 81  360/  2/  4 1015.5F
FRIPP NEARSHORE  0808   79      80/  4/  4 1020.5R


STATION/POSITION TIME  TEMP    WIND        PRES    WAVE   SWELL
                       AIR SEA DIR/SP/G            HT/PER HT/PER/DIR
                 (UTC) (F)     (DEG/KT/KT) (MB)    (FT/S) (FT/S/D)
5E ST. MARYS GA  0800      82                N/A     2/11   2/100/11
FRYING PAN BUOY  0810   76 82  320/ 19/ 25 1015.5
BUOY 41025       0750   74 76   10/  6/  8 1016.2    5/ 9   5/ 90/ 9
CAPE LOOKOUT NC  0800   77      70/  9/  9 1016.1R
BUOY 41002       0750   77 80   60/  2/  2 1015.3F   5/11   5/ 70/11
BUOY 41010       0810           70/ 14/ 16 1013.8
ST AUGUSTINE FL  0800   81 83   50/ 10/ 12 1014.2F


$$




USA.gov is the U.S. government's official web portal to all federal, state and local government web resources and services.